This is the latest recevied weather packets stored in our database for station/object XE1GMR. If no packets are shown the sender has not sent any weather packets the latest 10 day(s).
| Time | Temp. | Humidity | Pressure | Rain* | Wind** | Luminosity | Snow |
|---|---|---|---|---|---|---|---|
| 1777642991 | 19.44° C | 40% | 1120.3 hPa | 0 mm | - | 193 W/m² | - |
| 1777642688 | 18.33° C | 43% | 1120.4 hPa | 0 mm | - | 175 W/m² | - |
| 1777642385 | 17.22° C | 45% | 1120.5 hPa | 0 mm | - | 158 W/m² | - |
| 1777642081 | 16.67° C | 49% | 1120.4 hPa | 0 mm | - | 147 W/m² | - |
| 1777641778 | 16.11° C | 48% | 1120.3 hPa | 0 mm | - | 134 W/m² | - |
| 1777641477 | 16.11° C | 50% | 1120.5 hPa | 0 mm | - | 116 W/m² | - |
| 1777641173 | 15.56° C | 50% | 1120.4 hPa | 0 mm | - | 104 W/m² | - |
| 1777640869 | 15.56° C | 51% | 1120.1 hPa | 0 mm | - | 88 W/m² | - |
| 1777640567 | 15.56° C | 50% | 1120.2 hPa | 0 mm | - | 68 W/m² | - |
| 1777640263 | 15° C | 50% | 1120.1 hPa | 0 mm | - | 54 W/m² | - |
| 1777639959 | 15° C | 51% | 1120.1 hPa | 0 mm | - | 49 W/m² | - |
| 1777639657 | 14.44° C | 52% | 1120 hPa | 0 mm | - | 42 W/m² | - |
| 1777639355 | 14.44° C | 52% | 1120 hPa | 0 mm | - | 37 W/m² | - |
| 1777639049 | 13.89° C | 53% | 1119.9 hPa | 0 mm | - | 30 W/m² | - |
| 1777638746 | 13.89° C | 54% | 1119.7 hPa | 0 mm | - | 25 W/m² | - |
| 1777638442 | 13.89° C | 55% | 1119.7 hPa | 0 mm | - | 20 W/m² | - |
| 1777638140 | 13.89° C | 55% | 1119.7 hPa | 0 mm | - | 14 W/m² | - |
| 1777637835 | 13.33° C | 56% | 1119.5 hPa | 0 mm | - | 9 W/m² | - |
| 1777637532 | 13.33° C | 56% | 1119.4 hPa | 0 mm | - | 5 W/m² | - |
| 1777637229 | 13.33° C | 57% | 1119.5 hPa | 0 mm | - | 3 W/m² | - |
| 1777636926 | 12.78° C | 58% | 1119.5 hPa | 0 mm | - | 0 W/m² | - |
| 1777636622 | 12.78° C | 59% | 1119.4 hPa | 0 mm | - | 0 W/m² | - |
| 1777636318 | 12.78° C | 58% | 1119.5 hPa | 0 mm | - | 0 W/m² | - |
| 1777636013 | 12.78° C | 58% | 1119.4 hPa | 0 mm | - | 0 W/m² | - |
| 1777635709 | 12.78° C | 58% | 1119.3 hPa | 0 mm | - | 0 W/m² | - |
* Rain latest hour (hover to see other rain measurements)
** Current wind speed in m/s (hover to see current wind gust speed)